Find OPS 4078

NORAD ID: 3510 Int'l Des: 1968-092 Owner: SAMSO Country: US operational
LEOCIRCULARRETROGRADESSO

Live-Position

3D-Globus wird geladen...

Über OPS 4078

Beschreibung wird geladen...

Nächste Überflüge

Passes for default location (London). Set your location on the main map for personalized predictions.

Höhenverlauf

Loading altitude history...

Zweizeiliger Elementsatz

1 03510U 68092A 26105.87642189 .00000057 00000-0 40129-4 0 9995
2 03510 98.5626 229.5825 0030420 148.6266 211.6738 14.28234206988355
Epoch: 15. Apr. 2026 • Age: 14 hours

Aktueller Status

Höhe 793.7 km
Geschwindigkeit 7.47 km/s
Subsatellitenpunkt 72.44°N, 69.14°E
Typ other

Most Searched